Nachtflug: NVFR

Flugschule

Flugschule

Wir bieten eine professionelle und umfassende Ausbildung.

Flugwetter Augsburg

[Quelle: ADDS]
METAR
EDMA 150320Z AUTO 24007KT 9999 FEW110/// BKN140/// OVC160/// 20/12 Q1008 =
EDMA 141700Z 1418/1503 VRB03KT CAVOK BECMG 1423/1501 25005KT
TAF
EDMA 141700Z 1418/1503 VRB03KT CAVOK BECMG 1423/1501 25005KT =

Kontakt

Nachtflug: NVFR

Berechtigung

Nachtflug: NVFRZur Durchführung von Überlandflügen bei Nacht.

Voraussetzungen

Die Voraussetzung für diese Qualifikation ist der LAPL (A) oder PPL (A)

Achtung: für LAPL Inhaber, ist die Instrumentenflugausbildung der PPL (A) erforderlich

Theoretische Ausbildung

  • zwei Stunden Theorieausbildung

Praktische Ausbildung

Zur praktischen Ausbildung gehören 5 Flugstunden bei Nacht, davon mindestens 3 Stunden Ausbildung mit einem Lehrberechtigten, davon mindestens eine Stunde Überland-Navigation mit mindestens einem Überlandflug mit Fluglehrer von mindestens 50 km und 5 Alleinstarts und 5 Alleinlandungen bis zum vollständigen Stillstand.

Prüfung

Eine Prüfung ist nicht erforderlich. Mit Abschluss der erforderlichen Flugausbildung senden wir das Antragsformular an die zuständige Luftfahrtbehörde. Sie bekommen dann eine neue Lizenz mit der Eintragung NVFR.